DW3560 Weather Reports


Display with metric or nautical units.
time (UTC)temp
F
wind
direction
speed
MPH
gust
MPH
rain 1hr
in
rain 24hr
in
rain mn
in
humidity
%
barometer
mb
20260509184003 65 255 1.0 4.0 0.00 0.00 0.00 72 1015.2
20260509183503 65 235 2.0 7.0 0.00 0.00 0.00 73 1015.2
20260509183003 65 235 2.0 7.0 0.00 0.00 0.00 71 1015.2
20260509182503 65 278 1.0 6.0 0.00 0.00 0.00 72 1015.2
20260509182003 64 273 1.0 5.0 0.00 0.00 0.00 73 1015.2
20260509181524 64 217 1.0 3.0 0.00 0.00 0.00 73 1015.2
20260509181024 63 223 2.0 8.0 0.00 0.00 0.00 74 1015.2
20260509180503 62 226 2.0 8.0 0.00 0.00 0.00 75 1015.2
20260509180024 62 209 1.0 6.0 0.00 0.00 0.00 77 1015.2
20260509175524 62 206 2.0 6.0 0.00 0.00 0.00 77 1015.2
20260509175003 61 216 2.0 6.0 0.00 0.00 0.00 77 1015.2
20260509174503 61 216 2.0 6.0 0.00 0.00 0.00 79 1015.2
20260509174024 61 212 1.0 6.0 0.00 0.00 0.00 80 1015.2
20260509173524 60 205 1.0 4.0 0.00 0.00 0.00 82 1015.2
20260509173003 60 213 1.0 5.0 0.00 0.00 0.00 84 1015.2
20260509172503 60 222 2.0 5.0 0.00 0.00 0.00 85 1015.2
20260509172003 59 241 1.0 5.0 0.00 0.00 0.00 87 1015.2
20260509171503 59 233 1.0 3.0 0.00 0.00 0.00 88 1015.2
20260509171024 58 227 1.0 3.0 0.00 0.00 0.00 89 1015.2
20260509170504 57 266 1.0 3.0 0.00 0.00 0.00 91 1015.2
20260509170024 57 303 1.0 3.0 0.00 0.00 0.00 91 1015.2
20260509165503 56 238 1.0 3.0 0.00 0.00 0.00 92 1015.2
20260509165003 56 200 1.0 5.0 0.00 0.00 0.00 92 1015.2
20260509164503 55 207 1.0 5.0 0.00 0.00 0.00 93 1015.2
20260509164003 55 217 1.0 3.0 0.00 0.00 0.00 93 1015.2
20260509163503 55 209 1.0 5.0 0.00 0.00 0.00 93 1015.2
20260509163003 54 216 1.0 5.0 0.00 0.00 0.00 93 1015.2
20260509162503 54 243 0.0 3.0 0.00 0.00 0.00 94 1015.2
20260509162003 54 216 1.0 3.0 0.00 0.00 0.00 94 1015.2
20260509161503 53 218 1.0 3.0 0.00 0.00 0.00 94 1015.2
20260509161003 53 231 1.0 3.0 0.00 0.00 0.00 94 1015.2
20260509160503 53 238 1.0 3.0 0.00 0.00 0.00 94 1015.2
20260509160003 53 215 0.0 3.0 0.00 0.00 0.00 94 1015.2
20260509155503 53 204 1.0 4.0 0.00 0.00 0.00 94 1015.2
20260509155003 52 205 1.0 4.0 0.00 0.00 0.00 94 1015.2
20260509154503 52 214 1.0 3.0 0.00 0.00 0.00 94 1015.2
20260509154024 52 225 1.0 4.0 0.00 0.00 0.00 94 1015.2
20260509153524 52 221 1.0 4.0 0.00 0.00 0.00 94 1015.2
20260509153003 52 210 0.0 3.0 0.00 0.00 0.00 94 1015.2
20260509152503 52 206 0.0 3.0 0.00 0.00 0.00 94 1015.2
20260509152003 52 205 1.0 3.0 0.00 0.00 0.00 94 1015.2
20260509151524 52 206 1.0 3.0 0.00 0.00 0.00 94 1015.2
20260509151003 52 206 1.0 3.0 0.00 0.00 0.00 94 1015.2
20260509150503 52 214 1.0 5.0 0.00 0.00 0.00 94 1015.2
20260509150003 52 206 1.0 5.0 0.00 0.00 0.00 94 1015.2
20260509145503 52 182 1.0 3.0 0.00 0.00 0.00 94 1015.2
20260509145003 51 180 1.0 3.0 0.00 0.00 0.00 94 1015.2
20260509144524 51 188 1.0 3.0 0.00 0.00 0.00 94 1015.2
20260509144003 51 211 0.0 3.0 0.00 0.00 0.00 94 1015.2
20260509143503 51 227 0.0 1.0 0.00 0.00 0.00 94 1015.2
20260509143024 51 227 0.0 1.0 0.00 0.00 0.00 94 1015.2
20260509142503 51 227 0.0 2.0 0.00 0.00 0.00 94 1015.2
20260509142024 51 227 0.0 2.0 0.00 0.00 0.00 93 1015.2
20260509141503 51 227 0.0 2.0 0.00 0.00 0.00 94 1015.2
20260509141003 51 227 0.0 2.0 0.00 0.00 0.00 94 1015.2
20260509140524 51 227 0.0 2.0 0.00 0.00 0.00 94 1015.2
20260509140024 51 0 0.0 0.0 0.00 0.00 0.00 94 1015.2
20260509135503 51 0 0.0 0.0 0.00 0.00 0.00 94 1015.2
20260509135003 51 0 0.0 0.0 0.00 0.00 0.00 93 1015.2
20260509134524 51 0 0.0 0.0 0.00 0.00 0.00 93 1015.2
20260509134003 51 0 0.0 0.0 0.00 0.00 0.00 93 1015.2
20260509133503 51 0 0.0 0.0 0.00 0.00 0.00 93 1015.2
20260509133004 51 0 0.0 0.0 0.00 0.00 0.00 93 1015.2
20260509132503 51 0 0.0 0.0 0.00 0.00 0.00 93 1015.2
20260509132003 51 0 0.0 0.0 0.00 0.00 0.00 93 1015.2
20260509131503 51 0 0.0 0.0 0.00 0.00 0.00 93 1015.2
20260509131003 51 227 0.0 3.0 0.00 0.00 0.00 93 1015.2
20260509130503 51 228 1.0 3.0 0.00 0.00 0.00 93 1015.2
20260509130024 51 229 1.0 3.0 0.00 0.00 0.00 93 1015.2
20260509125503 51 229 0.0 2.0 0.00 0.00 0.00 93 1015.2
20260509125003 51 229 0.0 1.0 0.00 0.00 0.00 93 1015.2
20260509124503 51 229 0.0 2.0 0.00 0.00 0.00 93 1015.2
20260509124003 51 229 0.0 2.0 0.00 0.00 0.00 93 1015.2
20260509123503 51 229 0.0 2.0 0.00 0.00 0.00 93 1015.2
20260509123003 51 229 0.0 2.0 0.00 0.00 0.00 93 1015.2
20260509122503 51 229 0.0 1.0 0.00 0.00 0.00 93 1015.2
20260509122003 51 229 0.0 1.0 0.00 0.00 0.00 93 1015.2
20260509121503 51 229 0.0 1.0 0.00 0.00 0.00 93 1015.2
20260509121003 51 229 0.0 1.0 0.00 0.00 0.00 93 1015.2
20260509120503 51 229 0.0 1.0 0.00 0.00 0.00 93 1015.2
20260509120022 51 229 0.0 1.0 0.00 0.00 0.00 93 1015.2
20260509115501 51 0 0.0 0.0 0.00 0.00 0.00 93 1015.2
20260509115001 51 0 0.0 0.0 0.00 0.00 0.00 93 1015.2
20260509114501 51 0 0.0 0.0 0.00 0.00 0.00 93 1015.2
20260509114001 51 0 0.0 0.0 0.00 0.00 0.00 93 1015.2
20260509113501 51 0 0.0 0.0 0.00 0.00 0.00 93 1015.2
20260509112501 51 0 0.0 0.0 0.00 0.00 0.00 93 1015.2
20260509112001 50 0 0.0 0.0 0.00 0.00 0.00 93 1015.2
20260509111501 50 0 0.0 0.0 0.00 0.00 0.00 93 1015.2
20260509111001 50 0 0.0 0.0 0.00 0.00 0.00 93 1015.2
20260509110501 50 0 0.0 0.0 0.00 0.00 0.00 93 1015.2
20260509110001 50 0 0.0 0.0 0.00 0.00 0.00 93 1017.9
20260509105501 50 0 0.0 0.0 0.00 0.00 0.00 93 1017.9
20260509105001 50 0 0.0 0.0 0.00 0.00 0.00 93 1017.9
20260509104502 51 0 0.0 0.0 0.00 0.00 0.00 93 1017.9
20260509104001 51 0 0.0 0.0 0.00 0.00 0.00 93 1017.9
20260509103501 51 0 0.0 0.0 0.00 0.00 0.00 93 1017.9
20260509103001 51 0 0.0 0.0 0.00 0.00 0.00 93 1017.9
20260509102502 51 228 0.0 1.0 0.00 0.00 0.00 93 1017.9
20260509102001 51 228 0.0 1.0 0.00 0.00 0.00 93 1017.9
20260509101501 51 228 0.0 1.0 0.00 0.00 0.00 93 1017.9
20260509101022 51 228 0.0 1.0 0.00 0.00 0.00 93 1017.9
20260509100501 51 0 0.0 0.0 0.00 0.00 0.00 93 1017.9
20260509100001 51 0 0.0 0.0 0.00 0.00 0.00 93 1017.9
20260509095501 51 228 0.0 1.0 0.00 0.00 0.00 93 1017.9
20260509095001 51 230 0.0 2.0 0.00 0.00 0.00 93 1017.9
20260509094501 51 231 0.0 2.0 0.00 0.00 0.00 93 1017.9
20260509094001 51 234 0.0 2.0 0.00 0.00 0.00 93 1017.9
20260509093501 51 234 0.0 2.0 0.00 0.00 0.00 93 1017.9
20260509093001 51 234 0.0 1.0 0.00 0.00 0.00 93 1017.9
20260509092522 51 234 1.0 3.0 0.00 0.00 0.00 93 1017.9
20260509092001 51 235 1.0 3.0 0.00 0.00 0.00 93 1017.9
20260509091502 51 234 1.0 3.0 0.00 0.00 0.00 93 1017.9
20260509091001 51 233 1.0 3.0 0.00 0.00 0.00 93 1017.9
20260509090501 51 223 1.0 3.0 0.00 0.00 0.00 93 1017.9
20260509090001 51 214 0.0 3.0 0.00 0.00 0.00 93 1017.9
20260509085502 51 213 0.0 2.0 0.00 0.00 0.00 93 1017.9
20260509085001 51 215 1.0 3.0 0.00 0.00 0.00 92 1017.9
20260509084502 51 215 0.0 3.0 0.00 0.00 0.00 92 1017.9
20260509084001 51 203 0.0 2.0 0.00 0.00 0.00 92 1017.9
20260509083501 51 202 1.0 5.0 0.00 0.00 0.00 92 1017.9
20260509083001 51 205 1.0 5.0 0.00 0.00 0.00 92 1017.9
20260509082501 51 208 1.0 2.0 0.00 0.00 0.00 92 1017.9
20260509082002 51 210 0.0 4.0 0.00 0.00 0.00 92 1017.9
20260509081522 51 229 0.0 4.0 0.00 0.00 0.00 92 1017.9
20260509081001 51 232 1.0 4.0 0.00 0.00 0.00 92 1017.9
20260509080502 51 220 0.0 4.0 0.00 0.00 0.00 92 1017.9
20260509080001 51 226 0.0 4.0 0.00 0.00 0.00 92 1017.9
20260509075501 51 233 0.0 4.0 0.00 0.00 0.00 92 1017.9
20260509075002 51 233 1.0 4.0 0.00 0.00 0.00 92 1017.9
20260509074501 51 235 1.0 4.0 0.00 0.00 0.00 92 1017.9
20260509074002 51 228 1.0 4.0 0.00 0.00 0.00 92 1017.9
20260509073501 51 212 1.0 3.0 0.00 0.00 0.00 92 1017.9
20260509073002 51 212 1.0 3.0 0.00 0.00 0.00 92 1017.9
20260509072501 51 226 1.0 3.0 0.00 0.00 0.00 92 1017.9
20260509072001 51 232 1.0 3.0 0.00 0.00 0.00 92 1017.9
20260509071501 51 236 0.0 3.0 0.00 0.00 0.00 92 1017.9
20260509071002 51 237 0.0 3.0 0.00 0.00 0.00 91 1017.9
20260509070501 51 226 1.0 6.0 0.00 0.00 0.00 91 1017.9
20260509070005 51 222 1.0 6.0 0.00 0.00 0.00 91 1017.9
20260509065501 52 217 1.0 4.0 0.00 0.00 0.00 91 1017.9
20260509065002 52 219 1.0 4.0 0.00 0.00 0.00 91 1017.9
20260509064501 52 230 0.0 4.0 0.00 0.00 0.00 91 1017.9
20260509064001 52 229 0.0 5.0 0.00 0.00 0.00 91 1017.9
20260509063502 52 221 1.0 5.0 0.00 0.00 0.00 91 1017.9
20260509063002 52 224 1.0 4.0 0.00 0.00 0.00 91 1017.9
20260509062502 52 228 1.0 4.0 0.00 0.00 0.00 91 1017.9
20260509062001 52 216 1.0 5.0 0.00 0.00 0.00 91 1017.9
20260509061502 52 204 1.0 5.0 0.00 0.00 0.00 91 1017.9
20260509061002 52 193 1.0 4.0 0.00 0.00 0.00 91 1017.9
20260509060523 52 180 0.0 5.0 0.00 0.00 0.00 91 1017.9
20260509060023 52 164 1.0 5.0 0.00 0.00 0.00 91 1017.9
20260509055502 52 182 1.0 5.0 0.00 0.00 0.00 91 1017.9
20260509055001 52 193 1.0 4.0 0.00 0.00 0.00 91 1017.9
20260509054501 52 173 1.0 4.0 0.00 0.00 0.00 90 1017.9
20260509054002 52 182 2.0 5.0 0.00 0.00 0.00 90 1017.9
20260509053501 52 187 1.0 5.0 0.00 0.00 0.00 90 1017.9
20260509053002 52 181 0.0 4.0 0.00 0.00 0.00 90 1017.9
20260509052502 52 215 0.0 4.0 0.00 0.00 0.00 90 1017.9
20260509052002 52 228 0.0 4.0 0.00 0.00 0.00 90 1017.9
20260509051523 53 223 0.0 4.0 0.00 0.00 0.00 90 1017.9
20260509051002 53 190 0.0 2.0 0.00 0.00 0.00 90 1017.9
20260509050502 53 191 1.0 3.0 0.00 0.00 0.00 90 1017.9
20260509050001 53 203 1.0 4.0 0.00 0.00 0.00 90 1017.9
20260509045502 53 206 1.0 4.0 0.00 0.00 0.00 90 1017.9
20260509045023 53 196 1.0 4.0 0.00 0.00 0.00 89 1017.9
20260509044502 53 205 0.0 4.0 0.00 0.00 0.00 89 1017.9
20260509044002 53 213 1.0 3.0 0.00 0.00 0.00 89 1017.9
20260509043502 53 209 1.0 3.0 0.00 0.00 0.00 89 1017.9
20260509043002 53 197 1.0 3.0 0.00 0.00 0.00 89 1017.9
20260509042502 53 196 1.0 5.0 0.00 0.00 0.00 89 1017.9
20260509042023 54 198 1.0 5.0 0.00 0.00 0.00 89 1017.9
20260509041502 54 201 1.0 4.0 0.00 0.00 0.00 89 1017.9
20260509041001 54 205 1.0 4.0 0.00 0.00 0.00 89 1017.9
20260509040502 54 222 1.0 4.0 0.00 0.00 0.00 89 1017.9
20260509040002 54 222 0.0 4.0 0.00 0.00 0.00 88 1017.9
20260509035502 54 225 0.0 1.0 0.00 0.00 0.00 88 1017.9
20260509035023 54 229 0.0 3.0 0.00 0.00 0.00 88 1017.9
20260509034523 54 233 1.0 3.0 0.00 0.00 0.00 88 1017.9
20260509034002 54 246 0.0 2.0 0.00 0.00 0.00 88 1017.9
20260509033502 54 251 0.0 2.0 0.00 0.00 0.00 88 1017.9
20260509033002 54 252 0.0 2.0 0.00 0.00 0.00 87 1017.9
20260509032502 54 253 0.0 2.0 0.00 0.00 0.00 87 1017.9
20260509032002 54 245 0.0 2.0 0.00 0.00 0.00 87 1017.9
20260509031502 55 231 1.0 3.0 0.00 0.00 0.00 86 1017.9
20260509031001 55 230 1.0 4.0 0.00 0.00 0.00 86 1017.9
20260509030501 55 234 1.0 4.0 0.00 0.00 0.00 86 1017.9
20260509030002 55 260 0.0 3.0 0.00 0.00 0.00 86 1017.9
20260509025501 55 290 0.0 3.0 0.00 0.00 0.00 85 1017.9
20260509025002 56 328 0.0 2.0 0.00 0.00 0.00 85 1017.9
20260509024502 56 290 0.0 5.0 0.00 0.00 0.00 84 1017.9
20260509024002 56 246 1.0 5.0 0.00 0.00 0.00 84 1017.9
20260509023501 56 233 1.0 4.0 0.00 0.00 0.00 83 1017.9
20260509023002 57 234 1.0 4.0 0.00 0.00 0.00 83 1017.9
20260509022523 57 238 1.0 5.0 0.00 0.00 0.00 82 1017.9
20260509022023 57 234 1.0 5.0 0.00 0.00 0.00 82 1017.9
20260509021502 58 220 0.0 3.0 0.00 0.00 0.00 82 1017.9
20260509021002 58 233 0.0 1.0 0.00 0.00 0.00 81 1017.9
20260509020502 58 308 0.0 2.0 0.00 0.00 0.00 81 1017.9
20260509020002 59 343 0.0 2.0 0.00 0.00 0.00 80 1017.9
20260509015502 59 346 1.0 5.0 0.00 0.00 0.00 80 1017.9
20260509015023 59 344 1.0 5.0 0.00 0.00 0.00 80 1017.9
20260509014502 60 307 1.0 5.0 0.00 0.00 0.00 80 1017.9
20260509014002 60 291 1.0 3.0 0.00 0.00 0.00 79 1017.9
20260509013523 60 324 1.0 5.0 0.00 0.00 0.00 79 1017.9
20260509013002 60 331 1.0 5.0 0.00 0.00 0.00 78 1017.9
20260509012523 61 325 1.0 5.0 0.00 0.00 0.00 78 1017.9
20260509012023 61 311 1.0 5.0 0.00 0.00 0.00 77 1017.9
20260509011502 62 284 1.0 3.0 0.00 0.00 0.00 77 1017.9
20260509011002 62 277 1.0 3.0 0.00 0.00 0.00 76 1017.9
20260509010502 63 319 0.0 3.0 0.00 0.00 0.00 76 1017.9
20260509010002 63 340 0.0 3.0 0.00 0.00 0.00 75 1017.9
20260509005502 64 351 1.0 5.0 0.00 0.00 0.00 74 1017.9
20260509005002 64 344 1.0 5.0 0.00 0.00 0.00 74 1017.9
20260509004502 64 344 1.0 8.0 0.00 0.00 0.00 74 1017.9
20260509004001 64 347 1.0 8.0 0.00 0.00 0.00 73 1017.9
20260509003502 64 347 1.0 8.0 0.00 0.00 0.00 74 1017.9
20260509003023 64 332 1.0 5.0 0.00 0.00 0.00 74 1017.9
20260509002502 64 319 1.0 5.0 0.00 0.00 0.00 74 1017.9
20260509002002 64 340 1.0 6.0 0.00 0.00 0.00 74 1017.9
20260509001502 64 340 1.0 8.0 0.00 0.00 0.00 74 1017.9
20260509001023 65 335 2.0 8.0 0.00 0.00 0.00 73 1017.9
20260509000502 65 316 1.0 6.0 0.00 0.00 0.00 73 1017.9
20260509000002 65 314 1.0 4.0 0.00 0.00 0.00 74 1017.9
20260508235502 65 345 1.0 7.0 0.00 0.00 0.00 73 1017.9
20260508235002 65 348 1.0 7.0 0.00 0.00 0.00 73 1017.9
20260508234502 65 336 1.0 5.0 0.00 0.00 0.00 73 1017.9
20260508234002 65 327 1.0 5.0 0.00 0.00 0.00 73 1017.9
20260508233502 65 339 1.0 5.0 0.00 0.00 0.00 73 1017.9
20260508233023 65 342 1.0 6.0 0.00 0.00 0.00 73 1017.9
20260508232502 65 244 1.0 6.0 0.00 0.00 0.00 73 1017.9
20260508232002 65 247 1.0 4.0 0.00 0.00 0.00 73 1017.9
20260508231523 65 253 1.0 4.0 0.00 0.00 0.00 71 1017.9
20260508231002 66 320 1.0 5.0 0.00 0.00 0.00 72 1017.9
20260508230502 65 325 1.0 5.0 0.00 0.00 0.00 72 1017.9
20260508230002 65 303 1.0 5.0 0.00 0.00 0.00 72 1017.9
20260508225502 65 324 1.0 6.0 0.00 0.00 0.00 73 1017.9
20260508225002 65 307 1.0 6.0 0.00 0.00 0.00 72 1017.9
20260508224502 65 256 1.0 5.0 0.00 0.00 0.00 73 1017.9
20260508224002 65 236 1.0 4.0 0.00 0.00 0.00 72 1017.9
20260508223523 65 244 1.0 4.0 0.00 0.00 0.00 72 1017.9
20260508223002 65 250 1.0 4.0 0.00 0.00 0.00 72 1017.9
20260508222502 65 264 1.0 5.0 0.00 0.00 0.00 73 1017.9
20260508222002 65 302 1.0 5.0 0.00 0.00 0.00 71 1017.9
20260508221523 65 264 1.0 5.0 0.00 0.00 0.00 72 1017.9
20260508221002 65 246 1.0 5.0 0.00 0.00 0.00 71 1017.9
20260508220523 65 294 1.0 4.0 0.00 0.00 0.00 72 1017.9
20260508220002 64 284 1.0 4.0 0.00 0.00 0.00 74 1017.9
20260508215502 64 235 2.0 8.0 0.00 0.00 0.00 75 1017.9
20260508215002 64 233 2.0 8.0 0.00 0.00 0.00 73 1017.9
20260508214502 64 311 2.0 5.0 0.00 0.00 0.00 75 1017.9
20260508214002 64 271 1.0 5.0 0.00 0.00 0.00 76 1017.9
20260508213502 63 315 1.0 8.0 0.00 0.00 0.00 74 1017.9
20260508213002 63 354 2.0 8.0 0.00 0.00 0.00 75 1017.9
20260508212502 63 346 2.0 8.0 0.00 0.00 0.00 76 1017.9
20260508212002 63 339 2.0 8.0 0.00 0.00 0.00 77 1017.9
20260508211523 63 344 1.0 5.0 0.00 0.00 0.00 78 1017.9
20260508211003 62 299 1.0 5.0 0.00 0.00 0.00 78 1017.9
20260508210502 62 248 1.0 5.0 0.00 0.00 0.00 79 1017.9
20260508210002 61 255 1.0 5.0 0.00 0.00 0.00 79 1017.9
20260508205502 61 317 1.0 5.0 0.00 0.00 0.00 80 1017.9
20260508205002 61 324 1.0 4.0 0.00 0.00 0.00 82 1017.9
20260508204502 60 312 1.0 5.0 0.00 0.00 0.00 83 1017.9
20260508204002 60 320 1.0 5.0 0.00 0.00 0.00 84 1017.9
20260508203523 59 290 0.0 4.0 0.00 0.00 0.00 85 1017.9
20260508203002 58 264 1.0 3.0 0.00 0.00 0.00 86 1017.9
20260508202502 58 260 1.0 5.0 0.00 0.00 0.00 87 1017.9
20260508202002 57 217 1.0 5.0 0.00 0.00 0.00 88 1017.9
20260508201502 57 286 1.0 5.0 0.00 0.00 0.00 89 1017.9
20260508201002 56 236 1.0 6.0 0.00 0.00 0.00 89 1017.9
20260508200523 55 221 2.0 6.0 0.00 0.00 0.00 88 1017.9
20260508200002 55 219 2.0 7.0 0.00 0.00 0.00 89 1017.9
20260508195502 55 228 2.0 7.0 0.00 0.00 0.00 88 1017.9
20260508195002 55 232 2.0 7.0 0.00 0.00 0.00 89 1017.9
20260508194502 55 225 1.0 7.0 0.00 0.00 0.00 89 1017.9
20260508194002 55 234 1.0 5.0 0.00 0.00 0.00 89 1017.9
20260508193502 55 234 1.0 6.0 0.00 0.00 0.00 89 1017.9
20260508193002 54 235 1.0 6.0 0.00 0.00 0.00 89 1017.9
20260508192502 54 242 2.0 9.0 0.00 0.00 0.00 89 1017.9
20260508192002 54 237 3.0 9.0 0.00 0.00 0.00 88 1017.9
20260508191502 54 226 2.0 5.0 0.00 0.00 0.00 88 1017.9
20260508191002 54 233 2.0 6.0 0.00 0.00 0.00 88 1017.9
20260508190502 54 235 2.0 9.0 0.00 0.00 0.00 88 1017.9
20260508190002 54 232 2.0 9.0 0.00 0.00 0.00 88 1017.9
20260508185502 54 232 2.0 8.0 0.00 0.00 0.00 88 1017.9
20260508185002 54 232 2.0 8.0 0.00 0.00 0.00 87 1017.9
20260508184502 55 234 1.0 8.0 0.00 0.00 0.00 87 1017.9